Time,TemperatureF,DewpointF,PressureIn,WindDirection,WindDirectionDegrees,WindSpeedMPH,WindSpeedGustMPH,Humidity,HourlyPrecipIn,Conditions,Clouds,dailyrainin,SoftwareType,DateUTC
2013-03-09 00:03:00,29.0,22.0,30.22,East,86,0.0,1.0,74,0.00,,,0.00,,2013-03-09 05:03:00,
2013-03-09 00:12:00,29.0,22.0,30.22,East,86,0.0,1.0,74,0.00,,,0.00,,2013-03-09 05:12:00,
2013-03-09 00:22:00,29.0,21.0,30.22,East,86,0.0,0.0,73,0.00,,,0.00,,2013-03-09 05:22:00,
2013-03-09 00:32:00,28.0,21.0,30.23,East,86,0.0,1.0,75,0.00,,,0.00,,2013-03-09 05:32:00,
2013-03-09 00:43:00,28.0,21.0,30.23,East,86,0.0,1.0,75,0.00,,,0.00,,2013-03-09 05:43:00,
2013-03-09 00:52:00,28.0,21.0,30.23,East,86,0.0,2.0,75,0.00,,,0.00,,2013-03-09 05:52:00,
2013-03-09 01:02:00,28.0,20.0,30.24,East,86,0.0,0.0,73,0.00,,,0.00,,2013-03-09 06:02:00,
2013-03-09 01:11:00,28.0,21.0,30.23,East,86,0.0,1.0,74,0.00,,,0.00,,2013-03-09 06:11:00,
2013-03-09 01:22:00,28.0,21.0,30.23,East,86,0.0,1.0,74,0.00,,,0.00,,2013-03-09 06:22:00,
2013-03-09 01:32:00,28.0,21.0,30.22,East,86,1.0,2.0,75,0.00,,,0.00,,2013-03-09 06:32:00,
2013-03-09 01:42:00,28.0,21.0,30.22,East,86,1.0,2.0,75,0.00,,,0.00,,2013-03-09 06:42:00,
2013-03-09 01:52:00,28.0,21.0,30.22,East,86,0.0,3.0,74,0.00,,,0.00,,2013-03-09 06:52:00,
2013-03-09 02:01:00,28.0,20.0,30.22,East,86,0.0,1.0,72,0.00,,,0.00,,2013-03-09 07:01:00,
2013-03-09 02:11:00,28.0,20.0,30.22,East,86,0.0,1.0,72,0.00,,,0.00,,2013-03-09 07:11:00,
2013-03-09 02:21:00,28.0,20.0,30.22,East,86,0.0,1.0,72,0.00,,,0.00,,2013-03-09 07:21:00,
2013-03-09 02:32:00,28.0,20.0,30.22,East,86,0.0,2.0,71,0.00,,,0.00,,2013-03-09 07:32:00,
2013-03-09 02:42:00,28.0,20.0,30.22,East,86,0.0,2.0,71,0.00,,,0.00,,2013-03-09 07:42:00,
2013-03-09 02:52:00,28.0,20.0,30.22,East,86,0.0,0.0,70,0.00,,,0.00,,2013-03-09 07:52:00,
2013-03-09 03:01:00,27.0,18.0,30.20,East,88,0.0,4.0,68,0.00,,,0.00,,2013-03-09 08:01:00,
2013-03-09 03:11:00,27.0,18.0,30.20,East,88,0.0,4.0,68,0.00,,,0.00,,2013-03-09 08:11:00,
2013-03-09 03:22:00,28.0,18.0,30.21,East,88,0.0,0.0,67,0.00,,,0.00,,2013-03-09 08:22:00,
2013-03-09 03:32:00,28.0,19.0,30.20,East,88,0.0,1.0,68,0.00,,,0.00,,2013-03-09 08:32:00,
2013-03-09 03:42:00,28.0,19.0,30.20,East,88,0.0,1.0,68,0.00,,,0.00,,2013-03-09 08:42:00,
2013-03-09 03:52:00,28.0,19.0,30.19,East,88,1.0,2.0,68,0.00,,,0.00,,2013-03-09 08:52:00,
2013-03-09 04:02:00,27.0,18.0,30.19,East,88,0.0,1.0,68,0.00,,,0.00,,2013-03-09 09:02:00,
2013-03-09 04:12:00,27.0,18.0,30.19,East,88,0.0,1.0,68,0.00,,,0.00,,2013-03-09 09:12:00,
2013-03-09 04:21:00,27.0,17.0,30.19,ENE,67,1.0,3.0,66,0.00,,,0.00,,2013-03-09 09:21:00,
2013-03-09 04:32:00,28.0,17.0,30.19,ENE,67,0.0,0.0,64,0.00,,,0.00,,2013-03-09 09:32:00,
2013-03-09 04:42:00,28.0,17.0,30.19,ENE,67,0.0,0.0,64,0.00,,,0.00,,2013-03-09 09:42:00,
2013-03-09 04:52:00,28.0,18.0,30.19,ENE,67,0.0,1.0,66,0.00,,,0.00,,2013-03-09 09:52:00,
2013-03-09 05:01:00,28.0,17.0,30.19,NE,53,0.0,2.0,63,0.00,,,0.00,,2013-03-09 10:01:00,
2013-03-09 05:11:00,28.0,17.0,30.19,NE,53,0.0,2.0,63,0.00,,,0.00,,2013-03-09 10:11:00,
2013-03-09 05:22:00,29.0,18.0,30.19,NE,53,1.0,4.0,63,0.00,,,0.00,,2013-03-09 10:22:00,
2013-03-09 05:32:00,29.0,18.0,30.19,NE,35,0.0,2.0,62,0.00,,,0.00,,2013-03-09 10:32:00,
2013-03-09 05:42:00,29.0,18.0,30.19,NE,35,0.0,2.0,62,0.00,,,0.00,,2013-03-09 10:42:00,
2013-03-09 05:52:00,29.0,16.0,30.20,NE,35,0.0,1.0,59,0.00,,,0.00,,2013-03-09 10:52:00,
2013-03-09 06:01:00,29.0,18.0,30.20,NE,45,1.0,5.0,63,0.00,,,0.00,,2013-03-09 11:01:00,
2013-03-09 06:11:00,29.0,18.0,30.20,NE,45,1.0,5.0,63,0.00,,,0.00,,2013-03-09 11:11:00,
2013-03-09 06:21:00,29.0,18.0,30.20,NE,44,2.0,3.0,64,0.00,,,0.00,,2013-03-09 11:21:00,
2013-03-09 06:32:00,29.0,16.0,30.20,NE,37,0.0,2.0,59,0.00,,,0.00,,2013-03-09 11:32:00,
2013-03-09 06:42:00,29.0,16.0,30.20,NE,37,0.0,2.0,59,0.00,,,0.00,,2013-03-09 11:42:00,
2013-03-09 06:52:00,29.0,17.0,30.20,NE,37,0.0,3.0,61,0.00,,,0.00,,2013-03-09 11:52:00,
2013-03-09 07:02:00,29.0,17.0,30.21,NE,39,0.0,2.0,61,0.00,,,0.00,,2013-03-09 12:02:00,
2013-03-09 07:11:00,29.0,17.0,30.21,NE,39,0.0,2.0,61,0.00,,,0.00,,2013-03-09 12:11:00,
2013-03-09 07:22:00,29.0,18.0,30.21,NE,53,2.0,4.0,62,0.00,,,0.00,,2013-03-09 12:22:00,
2013-03-09 07:32:00,29.0,18.0,30.22,NE,53,0.0,1.0,63,0.00,,,0.00,,2013-03-09 12:32:00,
2013-03-09 07:42:00,29.0,18.0,30.22,NE,53,0.0,1.0,63,0.00,,,0.00,,2013-03-09 12:42:00,
2013-03-09 07:52:00,29.0,19.0,30.22,NE,53,0.0,0.0,66,0.00,,,0.00,,2013-03-09 12:52:00,
2013-03-09 08:02:00,30.0,19.0,30.22,NE,53,0.0,0.0,64,0.00,,,0.00,,2013-03-09 13:02:00,
2013-03-09 08:11:00,30.0,19.0,30.22,NE,53,0.0,0.0,64,0.00,,,0.00,,2013-03-09 13:11:00,
2013-03-09 08:21:00,30.0,19.0,30.23,NE,53,0.0,0.0,62,0.00,,,0.00,,2013-03-09 13:21:00,
2013-03-09 08:32:00,31.0,18.0,30.24,NE,53,0.0,0.0,57,0.00,,,0.00,,2013-03-09 13:32:00,
2013-03-09 08:42:00,31.0,18.0,30.24,NE,53,0.0,0.0,57,0.00,,,0.00,,2013-03-09 13:42:00,
2013-03-09 08:52:00,31.0,16.0,30.24,NE,53,0.0,0.0,54,0.00,,,0.00,,2013-03-09 13:52:00,
2013-03-09 09:01:00,33.0,18.0,30.24,NE,53,0.0,0.0,53,0.00,,,0.00,,2013-03-09 14:01:00,
2013-03-09 09:11:00,33.0,18.0,30.24,NE,53,0.0,0.0,53,0.00,,,0.00,,2013-03-09 14:11:00,
2013-03-09 09:21:00,34.0,18.0,30.24,NE,53,0.0,0.0,51,0.00,,,0.00,,2013-03-09 14:21:00,
2013-03-09 09:32:00,37.0,20.0,30.24,NE,53,0.0,0.0,50,0.00,,,0.00,,2013-03-09 14:32:00,
2013-03-09 09:42:00,37.0,20.0,30.24,NE,53,0.0,0.0,50,0.00,,,0.00,,2013-03-09 14:42:00,
2013-03-09 09:52:00,38.0,22.0,30.24,NE,53,0.0,1.0,51,0.00,,,0.00,,2013-03-09 14:52:00,
2013-03-09 10:02:00,42.0,23.0,30.24,NE,53,0.0,1.0,47,0.00,,,0.00,,2013-03-09 15:02:00,
2013-03-09 10:12:00,42.0,23.0,30.24,NE,53,0.0,1.0,47,0.00,,,0.00,,2013-03-09 15:12:00,
2013-03-09 10:22:00,43.0,23.0,30.23,NE,53,0.0,2.0,44,0.00,,,0.00,,2013-03-09 15:22:00,
2013-03-09 10:32:00,45.0,22.0,30.24,WNW,293,3.0,4.0,39,0.00,,,0.00,,2013-03-09 15:32:00,
2013-03-09 10:42:00,45.0,22.0,30.24,WNW,293,3.0,4.0,39,0.00,,,0.00,,2013-03-09 15:42:00,
2013-03-09 10:52:00,46.0,24.0,30.24,WNW,295,3.0,5.0,41,0.00,,,0.00,,2013-03-09 15:52:00,
2013-03-09 11:01:00,46.0,23.0,30.24,SW,232,2.0,7.0,40,0.00,,,0.00,,2013-03-09 16:01:00,
2013-03-09 11:11:00,46.0,23.0,30.24,SW,232,2.0,7.0,40,0.00,,,0.00,,2013-03-09 16:11:00,
2013-03-09 11:21:00,47.0,24.0,30.24,WNW,288,3.0,5.0,40,0.00,,,0.00,,2013-03-09 16:21:00,
2013-03-09 11:32:00,48.0,22.0,30.23,SW,232,4.0,8.0,36,0.00,,,0.00,,2013-03-09 16:32:00,
2013-03-09 11:42:00,48.0,22.0,30.23,SW,232,4.0,8.0,36,0.00,,,0.00,,2013-03-09 16:42:00,
2013-03-09 11:51:00,49.0,22.0,30.23,South,188,1.0,6.0,34,0.00,,,0.00,,2013-03-09 16:51:00,
2013-03-09 12:01:00,50.0,22.0,30.23,WSW,240,4.0,7.0,33,0.00,,,0.00,,2013-03-09 17:01:00,
2013-03-09 12:11:00,50.0,22.0,30.23,WSW,240,4.0,7.0,33,0.00,,,0.00,,2013-03-09 17:11:00,
2013-03-09 12:22:00,51.0,24.0,30.23,SSW,198,3.0,7.0,34,0.00,,,0.00,,2013-03-09 17:22:00,
2013-03-09 12:32:00,52.0,24.0,30.23,SSW,192,1.0,7.0,33,0.00,,,0.00,,2013-03-09 17:32:00,
2013-03-09 12:42:00,52.0,24.0,30.23,SSW,192,1.0,7.0,33,0.00,,,0.00,,2013-03-09 17:42:00,
2013-03-09 12:52:00,53.0,24.0,30.23,NW,321,4.0,8.0,32,0.00,,,0.00,,2013-03-09 17:52:00,
2013-03-09 13:02:00,53.0,24.0,30.22,NNW,342,2.0,6.0,32,0.00,,,0.00,,2013-03-09 18:02:00,
2013-03-09 13:11:00,53.0,24.0,30.22,NNW,342,2.0,6.0,32,0.00,,,0.00,,2013-03-09 18:11:00,
2013-03-09 13:21:00,54.0,23.0,30.22,NNE,31,3.0,5.0,30,0.00,,,0.00,,2013-03-09 18:21:00,
2013-03-09 13:32:00,55.0,24.0,30.22,North,351,4.0,7.0,30,0.00,,,0.00,,2013-03-09 18:32:00,
2013-03-09 13:42:00,55.0,24.0,30.22,North,351,4.0,7.0,30,0.00,,,0.00,,2013-03-09 18:42:00,
2013-03-09 13:52:00,55.0,23.0,30.21,North,351,4.0,7.0,29,0.00,,,0.00,,2013-03-09 18:52:00,
2013-03-09 14:02:00,56.0,24.0,30.20,NNE,33,4.0,9.0,29,0.00,,,0.00,,2013-03-09 19:02:00,
2013-03-09 14:12:00,56.0,24.0,30.20,NNE,33,4.0,9.0,29,0.00,,,0.00,,2013-03-09 19:12:00,
2013-03-09 14:22:00,56.0,24.0,30.20,North,11,4.0,8.0,29,0.00,,,0.00,,2013-03-09 19:22:00,
2013-03-09 14:32:00,56.0,23.0,30.19,ENE,58,3.0,9.0,27,0.00,,,0.00,,2013-03-09 19:32:00,
2013-03-09 14:42:00,56.0,23.0,30.19,ENE,58,3.0,9.0,27,0.00,,,0.00,,2013-03-09 19:42:00,
2013-03-09 14:52:00,56.0,23.0,30.19,North,3,4.0,10.0,28,0.00,,,0.00,,2013-03-09 19:52:00,
2013-03-09 15:02:00,57.0,23.0,30.19,NNE,31,4.0,9.0,27,0.00,,,0.00,,2013-03-09 20:02:00,
2013-03-09 15:11:00,57.0,23.0,30.19,NNE,31,4.0,9.0,27,0.00,,,0.00,,2013-03-09 20:11:00,
2013-03-09 15:22:00,57.0,23.0,30.19,NE,53,4.0,9.0,27,0.00,,,0.00,,2013-03-09 20:22:00,
2013-03-09 15:32:00,57.0,23.0,30.18,ENE,72,6.0,10.0,27,0.00,,,0.00,,2013-03-09 20:32:00,
2013-03-09 15:42:00,57.0,23.0,30.18,ENE,72,6.0,10.0,27,0.00,,,0.00,,2013-03-09 20:42:00,
2013-03-09 15:52:00,57.0,23.0,30.18,NE,42,5.0,8.0,27,0.00,,,0.00,,2013-03-09 20:52:00,
2013-03-09 16:02:00,57.0,23.0,30.17,NNE,23,4.0,9.0,27,0.00,,,0.00,,2013-03-09 21:02:00,
2013-03-09 16:12:00,57.0,23.0,30.17,NNE,23,4.0,9.0,27,0.00,,,0.00,,2013-03-09 21:12:00,
2013-03-09 16:22:00,57.0,23.0,30.18,NE,55,4.0,8.0,27,0.00,,,0.00,,2013-03-09 21:22:00,
2013-03-09 16:32:00,57.0,23.0,30.18,NNE,29,3.0,11.0,27,0.00,,,0.00,,2013-03-09 21:32:00,
2013-03-09 16:42:00,57.0,23.0,30.18,NNE,29,3.0,11.0,27,0.00,,,0.00,,2013-03-09 21:42:00,
2013-03-09 16:52:00,57.0,22.0,30.18,NNE,26,4.0,9.0,26,0.00,,,0.00,,2013-03-09 21:52:00,
2013-03-09 17:01:00,57.0,23.0,30.18,North,2,4.0,9.0,27,0.00,,,0.00,,2013-03-09 22:01:00,
2013-03-09 17:11:00,57.0,23.0,30.18,North,2,4.0,9.0,27,0.00,,,0.00,,2013-03-09 22:11:00,
2013-03-09 17:21:00,57.0,22.0,30.18,ENE,62,4.0,7.0,26,0.00,,,0.00,,2013-03-09 22:21:00,
2013-03-09 17:32:00,56.0,22.0,30.18,NE,49,3.0,8.0,26,0.00,,,0.00,,2013-03-09 22:32:00,
2013-03-09 17:42:00,56.0,22.0,30.18,NE,49,3.0,8.0,26,0.00,,,0.00,,2013-03-09 22:42:00,
2013-03-09 17:51:00,56.0,23.0,30.18,North,1,2.0,7.0,27,0.00,,,0.00,,2013-03-09 22:51:00,
2013-03-09 18:01:00,55.0,22.0,30.19,North,5,2.0,6.0,27,0.00,,,0.00,,2013-03-09 23:01:00,
2013-03-09 18:11:00,55.0,22.0,30.19,North,5,2.0,6.0,27,0.00,,,0.00,,2013-03-09 23:11:00,
2013-03-09 18:22:00,55.0,22.0,30.19,NNE,16,3.0,7.0,27,0.00,,,0.00,,2013-03-09 23:22:00,
2013-03-09 18:32:00,54.0,23.0,30.19,ENE,76,1.0,5.0,30,0.00,,,0.00,,2013-03-09 23:32:00,
2013-03-09 18:42:00,54.0,23.0,30.19,ENE,76,1.0,5.0,30,0.00,,,0.00,,2013-03-09 23:42:00,
2013-03-09 18:52:00,53.0,23.0,30.19,NE,45,0.0,3.0,31,0.00,,,0.00,,2013-03-09 23:52:00,
2013-03-09 19:02:00,49.0,24.0,30.19,NE,45,0.0,2.0,37,0.00,,,0.00,,2013-03-10 00:02:00,
2013-03-09 19:11:00,49.0,24.0,30.19,NE,45,0.0,2.0,37,0.00,,,0.00,,2013-03-10 00:11:00,
2013-03-09 19:22:00,48.0,25.0,30.20,NE,45,0.0,1.0,41,0.00,,,0.00,,2013-03-10 00:22:00,
2013-03-09 19:32:00,47.0,27.0,30.20,NE,45,1.0,2.0,46,0.00,,,0.00,,2013-03-10 00:32:00,
2013-03-09 19:42:00,47.0,27.0,30.20,NE,45,1.0,2.0,46,0.00,,,0.00,,2013-03-10 00:42:00,
2013-03-09 19:52:00,46.0,27.0,30.20,NE,45,2.0,2.0,48,0.00,,,0.00,,2013-03-10 00:52:00,
2013-03-09 20:01:00,45.0,27.0,30.19,ENE,70,1.0,2.0,48,0.00,,,0.00,,2013-03-10 01:01:00,
2013-03-09 20:11:00,45.0,27.0,30.19,ENE,70,1.0,2.0,48,0.00,,,0.00,,2013-03-10 01:11:00,
2013-03-09 20:21:00,45.0,27.0,30.20,ENE,70,0.0,2.0,48,0.00,,,0.00,,2013-03-10 01:21:00,
2013-03-09 20:32:00,45.0,27.0,30.20,ENE,70,0.0,2.0,48,0.00,,,0.00,,2013-03-10 01:32:00,
2013-03-09 20:42:00,45.0,27.0,30.20,ENE,70,0.0,2.0,48,0.00,,,0.00,,2013-03-10 01:42:00,
2013-03-09 20:52:00,45.0,27.0,30.21,ENE,70,0.0,1.0,50,0.00,,,0.00,,2013-03-10 01:52:00,
2013-03-09 21:01:00,45.0,27.0,30.21,ENE,70,1.0,2.0,50,0.00,,,0.00,,2013-03-10 02:01:00,
2013-03-09 21:11:00,45.0,27.0,30.21,ENE,70,1.0,2.0,50,0.00,,,0.00,,2013-03-10 02:11:00,
2013-03-09 21:22:00,45.0,27.0,30.20,ENE,70,0.0,2.0,50,0.00,,,0.00,,2013-03-10 02:22:00,
2013-03-09 21:32:00,45.0,27.0,30.22,ENE,70,0.0,2.0,50,0.00,,,0.00,,2013-03-10 02:32:00,
2013-03-09 21:42:00,45.0,27.0,30.22,ENE,70,0.0,2.0,50,0.00,,,0.00,,2013-03-10 02:42:00,
2013-03-09 21:52:00,45.0,27.0,30.22,ENE,70,0.0,2.0,50,0.00,,,0.00,,2013-03-10 02:52:00,
2013-03-09 22:02:00,45.0,27.0,30.22,ENE,70,1.0,4.0,50,0.00,,,0.00,,2013-03-10 03:02:00,
2013-03-09 22:12:00,45.0,28.0,30.22,ENE,70,0.0,2.0,52,0.00,,,0.00,,2013-03-10 03:12:00,
2013-03-09 22:22:00,45.0,28.0,30.22,ENE,70,0.0,2.0,52,0.00,,,0.00,,2013-03-10 03:22:00,
2013-03-09 22:32:00,45.0,29.0,30.23,ENE,70,1.0,2.0,53,0.00,,,0.00,,2013-03-10 03:32:00,
2013-03-09 22:42:00,45.0,29.0,30.23,ENE,70,1.0,2.0,53,0.00,,,0.00,,2013-03-10 03:42:00,
2013-03-09 22:52:00,45.0,28.0,30.23,ENE,70,0.0,1.0,52,0.00,,,0.00,,2013-03-10 03:52:00,
2013-03-09 23:01:00,45.0,28.0,30.23,ENE,70,0.0,1.0,52,0.00,,,0.00,,2013-03-10 04:01:00,
2013-03-09 23:11:00,45.0,28.0,30.23,ENE,70,0.0,1.0,52,0.00,,,0.00,,2013-03-10 04:11:00,
2013-03-09 23:21:00,44.0,28.0,30.23,ENE,70,0.0,1.0,53,0.00,,,0.00,,2013-03-10 04:21:00,
2013-03-09 23:32:00,44.0,28.0,30.22,ENE,70,0.0,2.0,53,0.00,,,0.00,,2013-03-10 04:32:00,
2013-03-09 23:42:00,44.0,28.0,30.22,ENE,70,0.0,2.0,53,0.00,,,0.00,,2013-03-10 04:42:00,
2013-03-09 23:52:00,44.0,28.0,30.22,ENE,70,1.0,2.0,53,0.00,,,0.00,,2013-03-10 04:52:00,